Lumberton, NC

11:08 PM EDT on April 19, 2018 (GMT -0400)
Lumberton Municipal

Weather History for KLBT - August, 2013

Change the Weather History Date:

Saturday, August 24, 2013

  Actual Average Record
Temperature  
Mean Temperature 77 °F 78 °F  
Max Temperature 83 °F 88 °F 102 °F (2002)
Min Temperature 70 °F 69 °F 65 °F (2016)
Degree Days  
Heating Degree Days 0 0  
Month to date heating degree days 0 0  
Since 1 June heating degree days 0 0  
Since 1 July heating degree days 0 0  
Cooling Degree Days 12 13  
Month to date cooling degree days 341 346  
Year to date cooling degree days 1428 1484  
Since 1 June cooling degree days 1236 1234  
Growing Degree Days 26 (Base 50)    
Moisture  
Dew Point 66 °F    
Average Humidity 70    
Maximum Humidity 93    
Minimum Humidity 47    
Precipitation  
Precipitation 0.00 in 0.18 in 2.68 in (2017)
Month to date precipitation 5.15 4.37  
Year to date precipitation 35.97 29.26  
Sea Level Pressure  
Sea Level Pressure 30.15 in    
Wind  
Wind Speed 9 mph (NE)    
Max Wind Speed 17 mph    
Max Gust Speed 24 mph    
Visibility 9 miles    
Events Rain , Thunderstorm    
T = Trace of Precipitation, MM = Missing Value Source: NWS Daily Summary

Daily Weather History Graph

Daily Weather History Graph

Search for Another Location

Airport or City:

Astronomy

Aug. 24, 2013 Rise Set
Actual Time 6:43 AM EDT 7:52 PM EDT
Civil Twilight 6:17 AM EDT 8:18 PM EDT
Nautical Twilight 5:46 AM EDT 8:49 PM EDT
Astronomical Twilight 5:14 AM EDT 9:21 PM EDT
Moon 9:59 PM EDT (8/24) 10:29 AM EDT (8/24)
Length of Visible Light 14h 01m
Length of Day
13h 09m
Waning Gibbous, 84% of the Moon is Illuminated
Aug 24
Waning Gibbous
Aug 28
Last Quarter
Sep 5
New
Sep 12
First Quarter
Sep 19
Full

Hourly Weather History & Observations

Time (EDT) Temp. Heat Index Dew Point Humidity Pressure Visibility Wind Dir Wind Speed Gust Speed Precip Events Conditions
12:13 AM 75.2 °F - 73.4 °F 94% 30.03 in 7.0 mi North 8.1 mph - 0.01 in Rain , Thunderstorm Light Thunderstorms and Rain
12:54 AM 75.0 °F - 72.0 °F 90% 30.05 in 7.0 mi NNE 5.8 mph - 0.02 in Thunderstorm Overcast
1:09 AM 73.4 °F - 71.6 °F 94% 30.05 in 8.0 mi NNE 6.9 mph - N/A   Scattered Clouds
1:54 AM 73.0 °F - 70.0 °F 90% 30.04 in 7.0 mi NNE 6.9 mph - N/A   Clear
2:54 AM 73.0 °F - 70.0 °F 90% 30.04 in 8.0 mi NNE 6.9 mph - N/A   Partly Cloudy
3:36 AM 73.4 °F - 71.6 °F 94% 30.05 in 7.0 mi NNE 5.8 mph - N/A   Mostly Cloudy
3:54 AM 73.0 °F - 71.1 °F 93% 30.06 in 8.0 mi North 4.6 mph - N/A   Overcast
4:54 AM 72.0 °F - 69.1 °F 91% 30.07 in 8.0 mi North 9.2 mph - N/A   Overcast
5:54 AM 71.1 °F - 68.0 °F 90% 30.10 in 10.0 mi North 9.2 mph - N/A   Overcast
6:18 AM 69.8 °F - 66.2 °F 88% 30.12 in 10.0 mi NE 11.5 mph - N/A   Overcast
6:54 AM 70.0 °F - 66.0 °F 87% 30.13 in 10.0 mi NNE 8.1 mph - N/A   Overcast
7:04 AM 69.8 °F - 64.4 °F 83% 30.14 in 10.0 mi NNE 10.4 mph - N/A   Overcast
7:54 AM 70.0 °F - 63.0 °F 78% 30.14 in 10.0 mi NNE 9.2 mph - N/A   Mostly Cloudy
8:54 AM 72.0 °F - 63.0 °F 73% 30.16 in 10.0 mi NNE 16.1 mph 21.9 mph N/A   Clear
9:54 AM 75.0 °F - 64.0 °F 69% 30.18 in 10.0 mi NE 10.4 mph - N/A   Clear
10:54 AM 78.1 °F - 64.0 °F 62% 30.20 in 10.0 mi NE 11.5 mph 17.3 mph N/A   Partly Cloudy
11:54 AM 80.1 °F 81.7 °F 64.0 °F 58% 30.20 in 10.0 mi NE 13.8 mph 19.6 mph N/A   Clear
12:54 PM 81.0 °F 82.2 °F 63.0 °F 54% 30.19 in 10.0 mi NE 10.4 mph - N/A   Clear
1:54 PM 81.0 °F 82.2 °F 63.0 °F 54% 30.19 in 10.0 mi ENE 8.1 mph 17.3 mph N/A   Scattered Clouds
2:54 PM 81.0 °F 81.7 °F 61.0 °F 50% 30.19 in 10.0 mi ENE 9.2 mph - N/A   Scattered Clouds
3:54 PM 82.9 °F 83.3 °F 61.0 °F 47% 30.18 in 10.0 mi NE 12.7 mph 19.6 mph N/A   Partly Cloudy
4:54 PM 82.9 °F 83.2 °F 60.1 °F 46% 30.18 in 10.0 mi NE 12.7 mph 18.4 mph N/A   Partly Cloudy
5:54 PM 81.0 °F 81.7 °F 61.0 °F 50% 30.18 in 10.0 mi ENE 9.2 mph - N/A   Clear
6:54 PM 80.1 °F 81.1 °F 61.0 °F 52% 30.18 in 10.0 mi NE 10.4 mph - N/A   Scattered Clouds
7:54 PM 75.9 °F - 63.0 °F 64% 30.20 in 10.0 mi NE 3.5 mph - N/A   Clear
8:54 PM 73.0 °F - 64.9 °F 76% 30.22 in 10.0 mi NNE 4.6 mph - N/A   Clear
9:54 PM 72.0 °F - 64.9 °F 78% 30.24 in 10.0 mi NNE 3.5 mph - N/A   Scattered Clouds
10:54 PM 73.0 °F - 64.0 °F 73% 30.25 in 10.0 mi ENE 6.9 mph - N/A   Mostly Cloudy
11:54 PM 72.0 °F - 63.0 °F 73% 30.26 in 10.0 mi ENE 4.6 mph - N/A   Scattered Clouds